GW0795 Weather Reports


Display with metric or nautical units.
time (UTC)temp
F
wind
direction
speed
MPH
gust
MPH
rain 1hr
in
rain 24hr
in
rain mn
in
humidity
%
barometer
mb
20260507175507 58 306 2.0 5.0 0.00 0.00 0.00 67 1020.7
20260507175010 56 178 3.0 7.0 0.00 0.00 0.00 69 1020.7
20260507174511 55 294 2.0 7.0 0.00 0.00 0.00 71 1020.7
20260507174004 55 162 3.0 7.0 0.00 0.00 0.00 70 1020.8
20260507173510 56 155 4.0 7.0 0.00 0.00 0.00 68 1020.9
20260507173031 57 172 1.0 5.0 0.00 0.00 0.00 69 1020.9
20260507172505 56 173 2.0 5.0 0.00 0.00 0.00 69 1020.9
20260507172009 57 141 1.0 3.0 0.00 0.00 0.00 69 1020.9
20260507171516 57 173 1.0 5.0 0.00 0.00 0.00 68 1020.9
20260507171008 56 228 1.0 5.0 0.00 0.00 0.00 72 1020.9
20260507170509 56 186 1.0 5.0 0.00 0.00 0.00 70 1020.9
20260507170022 55 303 2.0 5.0 0.00 0.00 0.00 72 1020.8
20260507165506 56 171 2.0 5.0 0.00 0.00 0.00 70 1020.8
20260507165012 56 221 1.0 4.0 0.00 0.00 0.00 71 1020.8
20260507164533 56 232 0.0 6.0 0.00 0.00 0.00 70 1020.8
20260507164011 56 269 1.0 6.0 0.00 0.00 0.00 71 1020.8
20260507163507 56 205 2.0 6.0 0.00 0.00 0.00 71 1020.9
20260507163008 55 9 1.0 6.0 0.00 0.00 0.00 73 1020.9
20260507162503 54 138 2.0 6.0 0.00 0.00 0.00 72 1020.9
20260507162011 56 176 2.0 5.0 0.00 0.00 0.00 70 1021.0
20260507161512 55 169 0.0 5.0 0.00 0.00 0.00 74 1021.0
20260507161007 54 174 1.0 5.0 0.00 0.00 0.00 73 1021.0
20260507160510 54 251 1.0 3.0 0.00 0.00 0.00 76 1021.0
20260507160024 54 150 1.0 3.0 0.00 0.00 0.00 73 1021.0
20260507155507 53 207 1.0 6.0 0.00 0.00 0.00 76 1021.1
20260507155010 53 142 0.0 6.0 0.00 0.00 0.00 76 1021.1
20260507154524 53 125 2.0 5.0 0.00 0.00 0.00 75 1021.1
20260507154010 53 192 1.0 6.0 0.00 0.00 0.00 77 1021.1
20260507153510 52 169 1.0 8.0 0.00 0.00 0.00 78 1021.1
20260507153034 52 157 2.0 8.0 0.00 0.00 0.00 76 1021.1
20260507152515 53 145 1.0 7.0 0.00 0.00 0.00 77 1021.1
20260507152012 52 173 2.0 6.0 0.00 0.00 0.00 77 1021.1
20260507151513 52 182 1.0 6.0 0.00 0.00 0.00 76 1021.0
20260507151006 53 195 0.0 5.0 0.00 0.00 0.00 77 1021.0
20260507150506 52 5 0.0 5.0 0.00 0.00 0.00 78 1021.0
20260507150014 52 184 0.0 6.0 0.00 0.00 0.00 77 1021.0
20260507145507 52 215 2.0 6.0 0.00 0.00 0.00 77 1021.0
20260507145011 52 211 2.0 6.0 0.00 0.00 0.00 78 1021.0
20260507144525 52 217 2.0 5.0 0.00 0.00 0.00 78 1021.1
20260507144011 52 232 2.0 5.0 0.00 0.00 0.00 77 1021.0
20260507143507 52 180 1.0 3.0 0.00 0.00 0.00 77 1021.0
20260507143027 52 294 0.0 4.0 0.00 0.00 0.00 79 1021.0
20260507142510 51 201 1.0 4.0 0.00 0.00 0.00 80 1020.9
20260507142010 51 196 1.0 4.0 0.00 0.00 0.00 81 1020.9
20260507141526 50 197 1.0 4.0 0.00 0.00 0.00 81 1020.9
20260507141010 50 192 0.0 7.0 0.00 0.00 0.00 82 1020.9
20260507140509 50 192 2.0 7.0 0.00 0.00 0.00 82 1020.9
20260507140019 50 192 1.0 3.0 0.00 0.00 0.00 83 1020.8
20260507135506 50 186 1.0 3.0 0.00 0.00 0.00 82 1020.6
20260507135008 50 220 1.0 4.0 0.00 0.00 0.00 82 1020.7
20260507134520 50 235 1.0 4.0 0.00 0.00 0.00 82 1020.6
20260507134002 50 208 0.0 3.0 0.00 0.00 0.00 83 1020.5
20260507133503 50 194 1.0 4.0 0.00 0.00 0.00 83 1020.6
20260507133006 50 194 0.0 4.0 0.00 0.00 0.00 84 1020.5
20260507132502 50 193 1.0 4.0 0.00 0.00 0.00 83 1020.5
20260507132006 50 216 1.0 3.0 0.00 0.00 0.00 83 1020.5
20260507131516 50 196 1.0 3.0 0.00 0.00 0.00 83 1020.4
20260507131004 50 173 1.0 3.0 0.00 0.00 0.00 83 1020.5
20260507130510 50 163 0.0 3.0 0.00 0.00 0.00 83 1020.5
20260507130015 50 163 0.0 3.0 0.00 0.00 0.00 83 1020.5
20260507125507 50 146 0.0 2.0 0.00 0.00 0.00 83 1020.4
20260507125006 50 126 0.0 2.0 0.00 0.00 0.00 83 1020.4
20260507124521 50 131 0.0 2.0 0.00 0.00 0.00 83 1020.4
20260507124011 50 126 0.0 2.0 0.00 0.00 0.00 83 1020.4
20260507123508 50 126 0.0 2.0 0.00 0.00 0.00 82 1020.5
20260507123023 50 217 0.0 2.0 0.00 0.00 0.00 83 1020.6
20260507122504 50 227 0.0 2.0 0.00 0.00 0.00 83 1020.6
20260507122004 50 146 0.0 2.0 0.00 0.00 0.00 83 1020.6
20260507121512 50 178 0.0 0.0 0.00 0.00 0.00 83 1020.6
20260507121004 50 178 0.0 1.0 0.00 0.00 0.00 83 1020.6
20260507120503 50 178 0.0 1.0 0.00 0.00 0.00 83 1020.6
20260507120011 50 175 0.0 0.0 0.00 0.00 0.00 84 1020.7
20260507115507 50 179 0.0 0.0 0.00 0.00 0.00 85 1020.8
20260507115004 50 179 0.0 0.0 0.00 0.00 0.00 85 1020.7
20260507114516 50 179 0.0 0.0 0.00 0.00 0.00 84 1020.8
20260507114006 50 179 0.0 2.0 0.00 0.00 0.00 84 1020.9
20260507113509 50 179 0.0 2.0 0.00 0.00 0.00 84 1020.9
20260507113038 50 172 0.0 0.0 0.00 0.00 0.00 84 1021.0
20260507112507 50 173 0.0 0.0 0.00 0.00 0.00 85 1021.0
20260507112010 50 173 0.0 0.0 0.00 0.00 0.00 85 1021.0
20260507111535 50 173 0.0 0.0 0.00 0.00 0.00 85 1021.0
20260507111004 50 173 0.0 0.0 0.00 0.00 0.00 85 1021.0
20260507110503 51 173 0.0 0.0 0.00 0.00 0.00 85 1021.0
20260507110015 50 173 0.0 0.0 0.00 0.00 0.00 85 1021.0
20260507105504 51 173 0.0 1.0 0.00 0.00 0.00 85 1021.0
20260507105003 51 173 0.0 1.0 0.00 0.00 0.00 85 1021.0
20260507104514 50 173 0.0 0.0 0.00 0.00 0.00 86 1021.0
20260507104010 51 173 0.0 0.0 0.00 0.00 0.00 86 1020.9
20260507103506 51 173 0.0 0.0 0.00 0.00 0.00 85 1021.1
20260507103021 51 172 0.0 0.0 0.00 0.00 0.00 85 1021.1
20260507102506 51 172 0.0 0.0 0.00 0.00 0.00 86 1021.2
20260507102008 51 173 0.0 0.0 0.00 0.00 0.00 86 1021.1
20260507101525 51 172 0.0 0.0 0.00 0.00 0.00 86 1021.2
20260507101008 51 172 0.0 2.0 0.00 0.00 0.00 86 1021.2
20260507100508 50 173 0.0 2.0 0.00 0.00 0.00 87 1021.1
20260507100026 50 173 0.0 2.0 0.00 0.00 0.00 87 1021.2
20260507095503 51 172 0.0 2.0 0.00 0.00 0.00 87 1021.2
20260507095003 50 173 0.0 2.0 0.00 0.00 0.00 87 1021.1
20260507094511 50 173 0.0 0.0 0.00 0.00 0.00 87 1021.1
20260507094003 50 173 0.0 0.0 0.00 0.00 0.00 87 1021.0
20260507093508 50 173 0.0 0.0 0.00 0.00 0.00 87 1021.1
20260507093014 50 173 0.0 0.0 0.00 0.00 0.00 87 1021.1
20260507092513 50 172 0.0 0.0 0.00 0.00 0.00 87 1021.1
20260507092010 50 173 0.0 0.0 0.00 0.00 0.00 88 1021.1
20260507091519 50 173 0.0 0.0 0.00 0.00 0.00 88 1021.1
20260507091009 50 172 0.0 0.0 0.00 0.00 0.00 88 1021.1
20260507090511 49 173 0.0 2.0 0.00 0.00 0.00 88 1021.1
20260507090024 50 172 0.0 2.0 0.00 0.00 0.00 88 1021.1
20260507085508 49 173 0.0 2.0 0.00 0.00 0.00 88 1021.2
20260507085007 50 172 0.0 2.0 0.00 0.00 0.00 88 1021.1
20260507084539 50 173 0.0 2.0 0.00 0.00 0.00 87 1021.1
20260507084011 50 173 0.0 2.0 0.00 0.00 0.00 87 1021.1
20260507083507 50 173 0.0 2.0 0.00 0.00 0.00 87 1021.1
20260507083012 50 173 0.0 2.0 0.00 0.00 0.00 87 1021.1
20260507082507 50 173 0.0 2.0 0.00 0.00 0.00 87 1021.2
20260507082008 50 193 0.0 1.0 0.00 0.00 0.00 87 1021.2
20260507081532 50 193 0.0 2.0 0.00 0.00 0.00 87 1021.2
20260507081007 51 193 0.0 2.0 0.00 0.00 0.00 87 1021.1
20260507080510 51 188 0.0 2.0 0.00 0.00 0.00 87 1021.2
20260507080024 51 157 0.0 2.0 0.00 0.00 0.00 87 1021.1
20260507075506 51 203 0.0 0.0 0.00 0.00 0.00 87 1021.1
20260507075007 51 207 0.0 0.0 0.00 0.00 0.00 87 1021.1
20260507074503 51 207 0.0 3.0 0.00 0.00 0.00 87 1021.3
20260507074004 51 195 0.0 3.0 0.00 0.00 0.00 87 1021.2
20260507073505 51 197 1.0 2.0 0.00 0.00 0.00 87 1021.3
20260507073005 51 205 0.0 5.0 0.00 0.00 0.00 88 1021.2
20260507072504 51 202 1.0 5.0 0.00 0.00 0.00 87 1021.2
20260507072003 51 219 2.0 5.0 0.00 0.00 0.00 88 1021.2
20260507071506 51 182 0.0 2.0 0.00 0.00 0.00 88 1021.1
20260507071004 51 229 0.0 4.0 0.00 0.00 0.00 88 1021.1
20260507070504 51 217 1.0 4.0 0.00 0.00 0.00 88 1021.1
20260507070011 51 182 0.0 3.0 0.00 0.00 0.00 88 1021.1
20260507065505 51 181 0.0 3.0 0.00 0.00 0.00 88 1021.2
20260507065003 51 188 0.0 3.0 0.00 0.00 0.00 89 1021.1
20260507064504 51 207 0.0 5.0 0.00 0.00 0.00 89 1021.3
20260507064003 51 199 1.0 5.0 0.00 0.00 0.00 89 1021.1
20260507063507 51 173 1.0 5.0 0.00 0.00 0.00 89 1021.2
20260507063008 51 186 0.0 7.0 0.00 0.00 0.00 89 1021.2
20260507062503 51 220 0.0 7.0 0.00 0.00 0.00 89 1021.3
20260507062004 51 183 0.0 4.0 0.00 0.00 0.00 89 1021.2
20260507061507 51 199 2.0 4.0 0.00 0.00 0.00 89 1021.3
20260507061004 51 194 0.0 6.0 0.00 0.00 0.00 89 1021.3
20260507060503 51 178 2.0 6.0 0.00 0.00 0.00 89 1021.3
20260507060006 51 187 0.0 0.0 0.00 0.00 0.00 89 1021.2
20260507055504 51 188 0.0 3.0 0.00 0.00 0.00 89 1021.3
20260507055006 51 202 0.0 3.0 0.00 0.00 0.00 89 1021.3
20260507054504 51 192 0.0 5.0 0.00 0.00 0.00 89 1021.3
20260507054005 51 192 2.0 5.0 0.00 0.00 0.00 89 1021.2
20260507053504 51 177 1.0 4.0 0.00 0.00 0.00 89 1021.2
20260507053008 51 190 2.0 6.0 0.00 0.00 0.00 88 1021.3
20260507052504 52 217 2.0 6.0 0.00 0.00 0.00 88 1021.3
20260507052004 52 212 0.0 5.0 0.00 0.00 0.00 87 1021.3
20260507051508 52 199 0.0 6.0 0.00 0.00 0.00 87 1021.4
20260507051006 52 202 0.0 6.0 0.00 0.00 0.00 86 1021.3
20260507050503 52 211 0.0 3.0 0.00 0.00 0.00 86 1021.4
20260507050012 52 201 0.0 2.0 0.00 0.00 0.00 86 1021.4
20260507045504 52 196 0.0 6.0 0.00 0.00 0.00 85 1021.4
20260507045004 52 227 2.0 6.0 0.00 0.00 0.00 85 1021.5
20260507044509 53 209 0.0 6.0 0.00 0.00 0.00 85 1021.5
20260507044006 53 192 1.0 6.0 0.00 0.00 0.00 84 1021.4
20260507043504 53 309 0.0 3.0 0.00 0.00 0.00 84 1021.4
20260507043010 53 203 1.0 3.0 0.00 0.00 0.00 84 1021.4
20260507042505 53 217 0.0 3.0 0.00 0.00 0.00 83 1021.3
20260507042002 53 203 1.0 3.0 0.00 0.00 0.00 82 1021.3
20260507041508 53 218 0.0 2.0 0.00 0.00 0.00 82 1021.3
20260507041006 53 199 0.0 2.0 0.00 0.00 0.00 82 1021.3
20260507040506 53 199 0.0 1.0 0.00 0.00 0.00 82 1021.3
20260507040010 53 198 0.0 2.0 0.00 0.00 0.00 82 1021.3
20260507035508 53 198 0.0 2.0 0.00 0.00 0.00 82 1021.3
20260507035007 54 198 0.0 1.0 0.00 0.00 0.00 82 1021.1
20260507034521 54 212 0.0 0.0 0.00 0.00 0.00 82 1021.1
20260507034003 54 211 0.0 0.0 0.00 0.00 0.00 81 1021.1
20260507033507 54 165 0.0 2.0 0.00 0.00 0.00 81 1021.1
20260507033015 54 151 0.0 2.0 0.00 0.00 0.00 81 1021.1
20260507032509 54 102 0.0 2.0 0.00 0.00 0.00 81 1020.9
20260507032004 54 302 0.0 2.0 0.00 0.00 0.00 81 1020.8
20260507031507 54 292 0.0 2.0 0.00 0.00 0.00 80 1020.7
20260507031006 54 292 0.0 1.0 0.00 0.00 0.00 80 1020.7
20260507030509 54 263 0.0 1.0 0.00 0.00 0.00 80 1020.7
20260507030016 54 214 0.0 5.0 0.00 0.00 0.00 80 1020.7
20260507025505 54 215 0.0 5.0 0.00 0.00 0.00 79 1020.6
20260507025004 55 208 0.0 3.0 0.00 0.00 0.00 79 1020.8
20260507024519 55 236 1.0 3.0 0.00 0.00 0.00 79 1020.8
20260507024003 55 162 0.0 3.0 0.00 0.00 0.00 79 1020.7
20260507023503 55 133 0.0 2.0 0.00 0.00 0.00 79 1020.7
20260507023010 55 196 1.0 3.0 0.00 0.00 0.00 79 1020.6
20260507022507 55 125 0.0 8.0 0.00 0.00 0.00 78 1020.7
20260507022006 55 295 2.0 8.0 0.00 0.00 0.00 78 1020.6
20260507021513 55 141 0.0 2.0 0.00 0.00 0.00 78 1020.5
20260507021008 55 152 0.0 2.0 0.00 0.00 0.00 78 1020.5
20260507020505 55 190 0.0 2.0 0.00 0.00 0.00 78 1020.5
20260507020008 55 196 1.0 2.0 0.00 0.00 0.00 77 1020.6
20260507015504 56 242 1.0 2.0 0.00 0.00 0.00 78 1020.6
20260507015008 56 229 0.0 2.0 0.00 0.00 0.00 77 1020.5
20260507014513 56 86 0.0 4.0 0.00 0.00 0.00 77 1020.5
20260507014004 56 197 0.0 4.0 0.00 0.00 0.00 77 1020.6
20260507013503 56 205 0.0 4.0 0.00 0.00 0.00 77 1020.6
20260507013020 56 213 0.0 4.0 0.00 0.00 0.00 77 1020.5
20260507012507 56 226 2.0 7.0 0.00 0.00 0.00 76 1020.6
20260507012008 56 189 3.0 7.0 0.00 0.00 0.00 76 1020.6
20260507011525 56 175 2.0 5.0 0.00 0.00 0.00 75 1020.6
20260507011006 56 224 1.0 2.0 0.00 0.00 0.00 76 1020.5
20260507010507 56 143 0.0 4.0 0.00 0.00 0.00 76 1020.6
20260507010015 56 85 1.0 5.0 0.00 0.00 0.00 77 1020.6
20260507005505 56 197 1.0 5.0 0.00 0.00 0.00 76 1020.7
20260507005010 56 193 1.0 5.0 0.00 0.00 0.00 76 1020.7
20260507004512 56 134 1.0 4.0 0.00 0.00 0.00 76 1020.7
20260507004006 57 288 1.0 4.0 0.00 0.00 0.00 75 1020.7
20260507003508 57 150 1.0 3.0 0.00 0.00 0.00 75 1020.7
20260507003013 57 155 0.0 3.0 0.00 0.00 0.00 76 1020.7
20260507002509 56 203 0.0 6.0 0.00 0.00 0.00 75 1020.7
20260507002008 57 248 0.0 6.0 0.00 0.00 0.00 75 1020.7
20260507001507 57 97 0.0 6.0 0.00 0.00 0.00 75 1020.7
20260507001001 57 241 1.0 6.0 0.00 0.00 0.00 75 1020.6
20260507000504 57 328 1.0 2.0 0.00 0.00 0.00 75 1020.6
20260507000002 57 199 1.0 5.0 0.00 0.00 0.00 76 1020.7
20260506235502 57 212 0.0 5.0 0.00 0.00 0.00 76 1020.7
20260506235006 57 106 0.0 3.0 0.00 0.00 0.00 75 1020.7
20260506234509 57 282 1.0 5.0 0.00 0.00 0.00 74 1020.7
20260506234005 57 208 0.0 5.0 0.00 0.00 0.00 75 1020.7
20260506233506 56 132 1.0 4.0 0.00 0.00 0.00 75 1020.7
20260506233017 57 160 1.0 4.0 0.00 0.00 0.00 75 1020.8
20260506232504 57 275 0.0 4.0 0.00 0.00 0.00 74 1020.8
20260506232005 57 281 0.0 5.0 0.00 0.00 0.00 75 1020.8
20260506231502 57 213 0.0 5.0 0.00 0.00 0.00 74 1020.9
20260506231001 57 110 1.0 3.0 0.00 0.00 0.00 75 1020.9
20260506230504 57 186 1.0 3.0 0.00 0.00 0.00 75 1020.9
20260506230006 57 284 1.0 4.0 0.00 0.00 0.00 74 1020.9
20260506225502 57 205 1.0 5.0 0.00 0.00 0.00 74 1020.8
20260506225002 57 242 1.0 5.0 0.00 0.00 0.00 74 1020.9
20260506224506 57 204 2.0 5.0 0.00 0.00 0.00 74 1020.9
20260506224005 57 196 1.0 3.0 0.00 0.00 0.00 73 1020.9
20260506223506 57 182 1.0 4.0 0.00 0.00 0.00 74 1020.9
20260506223010 57 211 1.0 4.0 0.00 0.00 0.00 74 1020.9
20260506222507 56 315 1.0 5.0 0.00 0.00 0.00 74 1020.8
20260506222010 56 202 1.0 7.0 0.00 0.00 0.00 75 1021.0
20260506221517 56 189 1.0 7.0 0.00 0.00 0.00 74 1021.1
20260506221010 56 308 1.0 5.0 0.00 0.00 0.00 74 1021.2
20260506220507 57 217 2.0 8.0 0.00 0.00 0.00 74 1021.1
20260506220003 56 239 2.0 10.0 0.00 0.00 0.00 75 1021.1
20260506215504 56 182 1.0 10.0 0.00 0.00 0.00 76 1021.1
20260506215006 56 311 2.0 6.0 0.00 0.00 0.00 76 1021.1
20260506214507 56 179 1.0 6.0 0.00 0.00 0.00 76 1021.1
20260506214003 56 192 1.0 5.0 0.00 0.00 0.00 75 1021.2
20260506213505 56 202 1.0 5.0 0.00 0.00 0.00 75 1021.2
20260506213011 56 154 0.0 4.0 0.00 0.00 0.00 76 1021.1
20260506212506 56 199 1.0 5.0 0.00 0.00 0.00 75 1021.1
20260506212009 56 209 1.0 5.0 0.00 0.00 0.00 77 1021.1
20260506211512 56 180 0.0 3.0 0.00 0.00 0.00 75 1021.1
20260506211006 56 180 0.0 3.0 0.00 0.00 0.00 76 1021.1
20260506210515 56 229 0.0 4.0 0.00 0.00 0.00 77 1021.1
20260506210043 56 209 0.0 4.0 0.00 0.00 0.00 76 1021.1
20260506205509 56 238 0.0 4.0 0.00 0.00 0.00 76 1021.0
20260506205006 56 186 1.0 3.0 0.00 0.00 0.00 76 1021.0
20260506204524 56 183 1.0 5.0 0.00 0.00 0.00 76 1021.0
20260506204004 56 184 0.0 5.0 0.00 0.00 0.00 77 1021.1
20260506203503 56 218 2.0 5.0 0.00 0.00 0.00 77 1021.1
20260506203009 56 24 1.0 3.0 0.00 0.00 0.00 76 1021.0
20260506202503 56 253 0.0 3.0 0.00 0.00 0.00 77 1021.0
20260506202007 56 175 1.0 3.0 0.00 0.00 0.00 76 1021.0
20260506201519 56 229 1.0 4.0 0.00 0.00 0.00 77 1020.9
20260506201007 55 179 0.0 4.0 0.00 0.00 0.00 77 1021.0
20260506200507 56 205 0.0 4.0 0.00 0.00 0.00 78 1020.9
20260506200016 55 101 1.0 4.0 0.00 0.00 0.00 78 1020.9
20260506195507 55 213 1.0 4.0 0.00 0.00 0.00 78 1020.9
20260506195008 55 212 1.0 2.0 0.00 0.00 0.00 78 1020.8
20260506194523 55 165 0.0 4.0 0.00 0.00 0.00 78 1020.8
20260506194008 54 215 1.0 4.0 0.00 0.00 0.00 79 1020.7
20260506193511 54 204 2.0 4.0 0.00 0.00 0.00 79 1020.7
20260506193033 54 117 0.0 4.0 0.00 0.00 0.00 80 1020.7
20260506192503 54 205 1.0 5.0 0.00 0.00 0.00 79 1020.7
20260506192006 54 221 2.0 5.0 0.00 0.00 0.00 80 1020.7
20260506191512 54 221 0.0 4.0 0.00 0.00 0.00 81 1020.7
20260506191004 54 190 1.0 4.0 0.00 0.00 0.00 80 1020.7
20260506190509 54 195 1.0 4.0 0.00 0.00 0.00 81 1020.7
20260506190017 54 188 2.0 4.0 0.00 0.00 0.00 81 1020.7
20260506185510 54 161 1.0 4.0 0.00 0.00 0.00 82 1020.7
20260506185007 54 132 1.0 3.0 0.00 0.00 0.00 81 1020.7
20260506184527 54 199 0.0 5.0 0.00 0.00 0.00 82 1020.7
20260506184009 54 198 0.0 5.0 0.00 0.00 0.00 84 1020.7
20260506183512 53 209 1.0 4.0 0.00 0.00 0.00 83 1020.7
20260506183024 53 197 0.0 3.0 0.00 0.00 0.00 83 1020.7
20260506182511 54 190 0.0 2.0 0.00 0.00 0.00 84 1020.8
20260506182009 54 198 1.0 3.0 0.00 0.00 0.00 85 1020.8
20260506181536 53 190 1.0 3.0 0.00 0.00 0.00 84 1020.6
20260506181004 53 173 1.0 3.0 0.00 0.00 0.00 85 1020.5
20260506180504 53 167 0.0 6.0 0.00 0.00 0.00 86 1020.5
20260506180014 53 198 1.0 6.0 0.00 0.00 0.00 87 1020.5